Weather History for Monarch Pass, CO

Change the Weather History Date:

Tuesday, June 11, 2013

  Actual Average (KGUC) Record (KGUC)
Temperature  
Mean Temperature 55 °F -  
Max Temperature 62 °F 69 °F 80 °F (2001)
Min Temperature 48 °F 36 °F 26 °F (2012)
Degree Days  
Heating Degree Days 10    
Growing Degree Days 5 (Base 50)    
Moisture  
Dew Point 16 °F    
Average Humidity 23    
Maximum Humidity 35    
Minimum Humidity 14    
Precipitation  
Precipitation 0.00 in - - ()
Sea Level Pressure  
Sea Level Pressure 30.62 in    
Wind  
Wind Speed 26 mph (WSW)    
Max Wind Speed 52 mph    
Max Gust Speed 62 mph    
Averages and records for this station are not official NWS values.
T = Trace of Precipitation, MM = Missing Value Source: NWS Daily Summary

Daily Weather History Graph

Daily Weather History Graph

Search for Another Location

Airport:

Trip Planner

Search our weather history database for the weather conditions in past years. The results will help you decide how hot, cold, wet, or windy it might be!

Date:

Astronomy

Jun. 11, 2013 Rise Set
Actual Time 5:40 AM MDT 8:29 PM MDT
Civil Twilight 5:09 AM MDT 9:01 PM MDT
Nautical Twilight 4:29 AM MDT 9:40 PM MDT
Astronomical Twilight 3:44 AM MDT 10:26 PM MDT
Moon 8:24 AM MDT (6/11) 10:35 PM MDT (6/11)
Length of Visible Light 15h 52m
Length of Day
14h 48m
Waxing Crescent, 8% of the Moon is Illuminated
Jun 11
Waxing Crescent
Jun 16
First Quarter
Jun 23
Full
Jun 29
Last Quarter
Jul 8
New

Hourly Weather History & Observations

Time (MDT) Temp. Dew Point Humidity Pressure Visibility Wind Dir Wind Speed Gust Speed Precip Events Conditions
12:14 AM 53.6 °F 23.0 °F 30% 30.65 in - West 13.8 mph - N/A   Clear
12:34 AM 53.6 °F 21.2 °F 28% 30.65 in - West 11.5 mph - N/A   Clear
12:54 AM 53.6 °F 21.2 °F 28% 30.65 in - West 12.7 mph - N/A   Clear
1:14 AM 51.8 °F 21.2 °F 30% 30.65 in - West 15.0 mph - N/A   Clear
1:34 AM 51.8 °F 21.2 °F 30% 30.64 in - West 11.5 mph - N/A   Clear
1:54 AM 51.8 °F 21.2 °F 30% 30.64 in - West 17.3 mph - N/A   Clear
2:14 AM 51.8 °F 19.4 °F 28% 30.64 in - West 18.4 mph - N/A   Clear
2:34 AM 51.8 °F 19.4 °F 28% 30.64 in - West 17.3 mph - N/A   Clear
2:54 AM 50.0 °F 19.4 °F 30% 30.63 in - West 20.7 mph - N/A   Clear
3:14 AM 50.0 °F 19.4 °F 30% 30.63 in - WSW 21.9 mph - N/A   Clear
3:34 AM 50.0 °F 23.0 °F 35% 30.62 in - WSW 29.9 mph - N/A   Clear
3:54 AM 50.0 °F 21.2 °F 32% 30.63 in - WSW 31.1 mph - N/A   Clear
4:14 AM 50.0 °F 19.4 °F 30% 30.62 in - WSW 29.9 mph - N/A   Clear
4:34 AM 50.0 °F 19.4 °F 30% 30.63 in - WSW 28.8 mph - N/A   Clear
4:54 AM 50.0 °F 17.6 °F 28% 30.63 in - SW 26.5 mph - N/A   Clear
5:14 AM 50.0 °F 17.6 °F 28% 30.63 in - SW 26.5 mph - N/A   Clear
5:34 AM 50.0 °F 14.0 °F 24% 30.63 in - SW 31.1 mph 36.8 mph N/A   Clear
5:54 AM 50.0 °F 14.0 °F 24% 30.64 in - SW 27.6 mph 38.0 mph N/A   Clear
6:14 AM 50.0 °F 12.2 °F 22% 30.63 in - WSW 27.6 mph 38.0 mph N/A   Clear
6:34 AM 50.0 °F 12.2 °F 22% 30.63 in - WSW 24.2 mph - N/A   Clear
6:54 AM 50.0 °F 14.0 °F 24% 30.63 in - WSW 26.5 mph - N/A   Clear
7:14 AM 50.0 °F 14.0 °F 24% 30.62 in - WSW 28.8 mph - N/A   Clear
7:34 AM 50.0 °F 14.0 °F 24% 30.62 in - WSW 28.8 mph 33.4 mph N/A   Clear
7:54 AM 51.8 °F 14.0 °F 22% 30.62 in - WSW 28.8 mph - N/A   Clear
8:14 AM 51.8 °F 17.6 °F 26% 30.61 in - SW 29.9 mph 34.5 mph N/A   Clear
8:34 AM 53.6 °F 15.8 °F 22% 30.61 in - SW 27.6 mph 32.2 mph N/A   Clear
8:54 AM 53.6 °F 14.0 °F 21% 30.61 in - SSW 31.1 mph 36.8 mph N/A   Clear
9:14 AM 53.6 °F 14.0 °F 21% 30.60 in - SSW 35.7 mph 40.3 mph N/A   Clear
9:34 AM 53.6 °F 19.4 °F 26% 30.61 in - WSW 32.2 mph 35.7 mph N/A   Clear
9:54 AM 53.6 °F 21.2 °F 28% 30.61 in - WSW 25.3 mph 29.9 mph N/A   Clear
10:14 AM 53.6 °F 21.2 °F 28% 30.60 in - West 24.2 mph 33.4 mph N/A   Clear
10:34 AM 55.4 °F 17.6 °F 23% 30.60 in - WSW 29.9 mph - N/A   Clear
10:54 AM 55.4 °F 17.6 °F 23% 30.60 in - WSW 26.5 mph 35.7 mph N/A   Clear
11:14 AM 55.4 °F 19.4 °F 25% 30.60 in - WSW 24.2 mph 36.8 mph N/A   Clear
11:34 AM 57.2 °F 17.6 °F 21% 30.60 in - WSW 27.6 mph 39.1 mph N/A   Clear
11:54 AM 59.0 °F 17.6 °F 20% 30.60 in - WSW 26.5 mph 40.3 mph N/A   Clear
12:14 PM 59.0 °F 17.6 °F 20% 30.60 in - WSW 29.9 mph 35.7 mph N/A   Clear
12:34 PM 59.0 °F 15.8 °F 19% 30.60 in - West 35.7 mph 41.4 mph N/A   Clear
12:54 PM 59.0 °F 15.8 °F 19% 30.60 in - West 34.5 mph 43.7 mph N/A   Clear
1:14 PM 60.8 °F 14.0 °F 16% 30.60 in - West 29.9 mph 43.7 mph N/A   Clear
1:34 PM 60.8 °F 14.0 °F 16% 30.58 in - WSW 33.4 mph 42.6 mph N/A   Clear
1:54 PM 60.8 °F 15.8 °F 17% 30.58 in - West 36.8 mph 43.7 mph N/A   Clear
2:14 PM 62.6 °F 15.8 °F 16% 30.57 in - West 41.4 mph 50.6 mph N/A   Clear
2:34 PM 62.6 °F 14.0 °F 15% 30.58 in - West 35.7 mph 57.5 mph N/A   Clear
2:54 PM 62.6 °F 14.0 °F 15% 30.56 in - West 49.5 mph 57.5 mph N/A   Clear
3:14 PM 62.6 °F 14.0 °F 15% 30.57 in - West 43.7 mph 52.9 mph N/A   Clear
3:34 PM 62.6 °F 14.0 °F 15% 30.58 in - West 39.1 mph 56.4 mph N/A   Clear
3:54 PM 62.6 °F 15.8 °F 16% 30.58 in - West 39.1 mph 56.4 mph N/A   Clear
4:14 PM 62.6 °F 14.0 °F 15% 30.59 in - West 43.7 mph 52.9 mph N/A   Clear
4:34 PM 62.6 °F 14.0 °F 15% 30.58 in - West 44.9 mph 55.2 mph N/A   Clear
4:54 PM 62.6 °F 14.0 °F 15% 30.59 in - West 44.9 mph 57.5 mph N/A   Clear
5:14 PM 62.6 °F 12.2 °F 14% 30.59 in - West 48.3 mph 62.1 mph N/A   Clear
5:34 PM 62.6 °F 12.2 °F 14% 30.58 in - West 39.1 mph 54.1 mph N/A   Clear
5:54 PM 60.8 °F 12.2 °F 15% 30.58 in - West 51.8 mph 61.0 mph N/A   Clear
6:14 PM 60.8 °F 10.4 °F 14% 30.60 in - West 42.6 mph 58.7 mph N/A   Clear
6:34 PM 60.8 °F 14.0 °F 16% 30.59 in - West 36.8 mph 49.5 mph N/A   Clear
6:54 PM 59.0 °F 12.2 °F 16% 30.59 in - West 47.2 mph 59.8 mph N/A   Clear
7:14 PM 59.0 °F 14.0 °F 17% 30.61 in - West 41.4 mph 50.6 mph N/A   Clear
7:34 PM 57.2 °F 15.8 °F 20% 30.60 in - West 40.3 mph 49.5 mph N/A   Clear
7:54 PM 55.4 °F 17.6 °F 23% 30.63 in - West 39.1 mph 49.5 mph N/A   Clear
8:14 PM 53.6 °F 17.6 °F 24% 30.63 in - West 35.7 mph 41.4 mph N/A   Clear
8:34 PM 53.6 °F 15.8 °F 22% 30.63 in - West 34.5 mph 50.6 mph N/A   Clear
8:54 PM 51.8 °F 15.8 °F 24% 30.64 in - West 40.3 mph 47.2 mph N/A   Clear
9:14 PM 51.8 °F 15.8 °F 24% 30.65 in - West 28.8 mph 39.1 mph N/A   Clear
9:34 PM 51.8 °F 15.8 °F 24% 30.67 in - West 24.2 mph 41.4 mph N/A   Clear
9:54 PM 51.8 °F 15.8 °F 24% 30.67 in - West 27.6 mph 35.7 mph N/A   Clear
10:14 PM 51.8 °F 15.8 °F 24% 30.68 in - West 29.9 mph 38.0 mph N/A   Clear
10:34 PM 50.0 °F 15.8 °F 26% 30.69 in - West 24.2 mph 33.4 mph N/A   Clear
10:54 PM 50.0 °F 15.8 °F 26% 30.69 in - WSW 21.9 mph 28.8 mph N/A   Clear
11:14 PM 50.0 °F 15.8 °F 26% 30.69 in - West 26.5 mph - N/A   Clear
11:34 PM 48.2 °F 15.8 °F 27% 30.69 in - West 29.9 mph - N/A   Clear
11:54 PM 48.2 °F 15.8 °F 27% 30.69 in - West 31.1 mph 35.7 mph N/A   Clear